Location: Moy Burn
(57.3833°N, 4.0667°W)
Time: 10:14:55
(UTC+00:00)

Cosmos 1703 Rocket - Pass Details

Date: 08 August 2020
Orbit: 605 x 634 km, 82.5° (Epoch: 19 September)

Event Time Altitude Azimuth Distance (km) Brightness Sun altitude
Rises 22:14:14 0° 345° (NNW) 2,901 8.6 -12.2°
Reaches altitude 10° 22:16:29 10° 343° (NNW) 1,987 7.5 -12.3°
Maximum altitude 22:20:50 66° 262° (W) 672 3.8 -12.6°
Enters shadow 22:24:18 16° 182° (S) 1,628 5.2 -12.9°
